EAG5502 SKBO-GOBD

Flight info

Callsign EAG5502
Flight time 6h 56m
Altitude 39000
Route MAVDA DCT AUC DCT SFD DCT MUN DCT POS DCT NOSOB/N0479F410 DCT TUTLO DCT LUMPO
Aircraft A35K/H-SDE2E3GHIJ3J4J5LM1ORWXY/LB1D1

Departure

Time 2026-04-25 16:29
Airport El Dorado International Airport (SKBO)

Arrival

Time 2026-04-25 23:26
Airport Blaise Diagne International Airport (GOBD)
Time Latitude Longitude Altitude Speed Heading
2026-04-25 16:12 4.70103 -74.14273 8379 ft 0 kts 199°
2026-04-25 16:16 4.70106 -74.14272 8378 ft 3 kts 199°
2026-04-25 16:16 4.70132 -74.14264 8376 ft 4 kts 197°
2026-04-25 16:16 4.70155 -74.14253 8377 ft 4 kts 224°
2026-04-25 16:17 4.70170 -74.14232 8378 ft 4 kts 250°
2026-04-25 16:17 4.70175 -74.14219 8379 ft 0 kts 252°
2026-04-25 16:19 4.70169 -74.14235 8378 ft 11 kts 250°
2026-04-25 16:20 4.70204 -74.14357 8379 ft 14 kts 304°
2026-04-25 16:20 4.70273 -74.14410 8376 ft 12 kts
2026-04-25 16:20 4.70335 -74.14376 8375 ft 0 kts 35°
2026-04-25 16:21 4.70366 -74.14354 8376 ft 10 kts 35°
2026-04-25 16:21 4.70442 -74.14353 8376 ft 19 kts 316°
2026-04-25 16:21 4.70547 -74.14490 8377 ft 25 kts 309°
2026-04-25 16:21 4.70651 -74.14626 8376 ft 24 kts 306°
2026-04-25 16:22 4.70747 -74.14756 8376 ft 23 kts 306°
2026-04-25 16:22 4.70840 -74.14879 8375 ft 21 kts 308°
2026-04-25 16:22 4.70929 -74.14994 8375 ft 20 kts 307°
2026-04-25 16:22 4.71012 -74.15105 8377 ft 20 kts 307°
2026-04-25 16:23 4.71096 -74.15207 8375 ft 18 kts 324°
2026-04-25 16:23 4.71200 -74.15227 8375 ft 0 kts 354°
2026-04-25 16:27 4.71215 -74.15229 8376 ft 7 kts 354°
2026-04-25 16:28 4.71276 -74.15231 8377 ft 9 kts
2026-04-25 16:28 4.71303 -74.15178 8376 ft 10 kts 103°
2026-04-25 16:28 4.71263 -74.15110 8373 ft 22 kts 125°
2026-04-25 16:28 4.71028 -74.14797 8375 ft 91 kts 127°
2026-04-25 16:29 4.70508 -74.14111 8372 ft 152 kts 127°
2026-04-25 16:29 4.69782 -74.13149 8521 ft 190 kts 124°
2026-04-25 16:29 4.69000 -74.12089 9485 ft 186 kts 126°
2026-04-25 16:29 4.68299 -74.10945 9953 ft 205 kts 108°
2026-04-25 16:30 4.68270 -74.09485 10488 ft 217 kts 73°
2026-04-25 16:30 4.68980 -74.08156 11218 ft 220 kts 54°
2026-04-25 16:30 4.69969 -74.06911 11754 ft 236 kts 48°
2026-04-25 16:30 4.71104 -74.05682 12184 ft 243 kts 46°
2026-04-25 16:31 4.72280 -74.04442 12967 ft 247 kts 46°
2026-04-25 16:31 4.73479 -74.03183 13750 ft 252 kts 46°
2026-04-25 16:31 4.74304 -74.02319 14248 ft 255 kts 46°
2026-04-25 16:31 4.75942 -74.00599 15160 ft 261 kts 46°
2026-04-25 16:32 4.76788 -73.99700 15608 ft 263 kts 46°
2026-04-25 16:32 4.78024 -73.98375 16161 ft 266 kts 46°
2026-04-25 16:32 4.79310 -73.96986 16538 ft 279 kts 47°
2026-04-25 16:32 4.80646 -73.95496 16777 ft 295 kts 48°
2026-04-25 16:33 4.82040 -73.93910 17024 ft 312 kts 48°
2026-04-25 16:33 4.83509 -73.92229 17249 ft 328 kts 48°
2026-04-25 16:33 4.85049 -73.90470 17483 ft 344 kts 48°
2026-04-25 16:33 4.86663 -73.88631 17718 ft 358 kts 48°
2026-04-25 16:34 4.88345 -73.86720 17949 ft 372 kts 48°
2026-04-25 16:34 4.90091 -73.84744 18178 ft 385 kts 48°
2026-04-25 16:34 4.91895 -73.82702 18408 ft 397 kts 48°
2026-04-25 16:34 4.93749 -73.80605 18593 ft 408 kts 48°
2026-04-25 16:35 4.95654 -73.78451 18758 ft 417 kts 48°
2026-04-25 16:35 4.97594 -73.76256 19051 ft 423 kts 48°
2026-04-25 16:35 4.99551 -73.74042 19428 ft 426 kts 48°
2026-04-25 16:35 5.01520 -73.71814 19816 ft 428 kts 48°
2026-04-25 16:36 5.03502 -73.69569 20213 ft 430 kts 48°
2026-04-25 16:36 5.04148 -73.68838 20341 ft 431 kts 48°
2026-04-25 16:36 5.07494 -73.65051 20996 ft 435 kts 48°
2026-04-25 16:36 5.09505 -73.62772 21457 ft 436 kts 48°
2026-04-25 16:37 5.11522 -73.60489 21888 ft 438 kts 48°
2026-04-25 16:37 5.13521 -73.58225 22207 ft 442 kts 48°
2026-04-25 16:37 5.15568 -73.55908 22589 ft 445 kts 48°
2026-04-25 16:37 5.17622 -73.53582 22996 ft 447 kts 48°
2026-04-25 16:38 5.19685 -73.51245 23410 ft 449 kts 48°
2026-04-25 16:38 5.21759 -73.48895 23781 ft 451 kts 49°
2026-04-25 16:38 5.23841 -73.46536 24100 ft 453 kts 49°
2026-04-25 16:38 5.25936 -73.44161 24431 ft 455 kts 49°
2026-04-25 16:39 5.28041 -73.41775 24771 ft 458 kts 49°
2026-04-25 16:39 5.30158 -73.39376 25138 ft 460 kts 49°
2026-04-25 16:39 5.32284 -73.36965 25520 ft 462 kts 49°
2026-04-25 16:39 5.34421 -73.34543 25891 ft 465 kts 49°
2026-04-25 16:40 5.36565 -73.32113 26279 ft 467 kts 49°
2026-04-25 16:40 5.38725 -73.29663 26673 ft 470 kts 50°
2026-04-25 16:40 5.40900 -73.27196 27030 ft 473 kts 49°
2026-04-25 16:40 5.43088 -73.24714 27428 ft 476 kts 50°
2026-04-25 16:41 5.45293 -73.22213 27841 ft 479 kts 50°
2026-04-25 16:41 5.46757 -73.20552 28065 ft 481 kts 50°
2026-04-25 16:41 5.51975 -73.14632 28939 ft 488 kts 50°
2026-04-25 16:42 5.54234 -73.12069 29307 ft 491 kts 50°
2026-04-25 16:42 5.56468 -73.09533 29669 ft 493 kts 50°
2026-04-25 16:42 5.58746 -73.06947 30034 ft 496 kts 50°
2026-04-25 16:42 5.61036 -73.04347 30333 ft 498 kts 50°
2026-04-25 16:43 5.63337 -73.01734 30614 ft 501 kts 50°
2026-04-25 16:43 5.65643 -72.99116 30894 ft 502 kts 50°
2026-04-25 16:43 5.67822 -72.96364 31153 ft 503 kts 57°
2026-04-25 16:43 5.69776 -72.93448 31410 ft 504 kts 58°
2026-04-25 16:44 5.71678 -72.90491 31652 ft 506 kts 59°
2026-04-25 16:44 5.73557 -72.87501 31941 ft 506 kts 60°
2026-04-25 16:44 5.75419 -72.84506 32339 ft 505 kts 60°
2026-04-25 16:44 5.77272 -72.81520 32708 ft 503 kts 60°
2026-04-25 16:45 5.79121 -72.78542 33072 ft 502 kts 60°
2026-04-25 16:45 5.80969 -72.75573 33439 ft 501 kts 60°
2026-04-25 16:45 5.82812 -72.72617 33813 ft 499 kts 60°
2026-04-25 16:45 5.84654 -72.69666 34187 ft 497 kts 60°
2026-04-25 16:46 5.86493 -72.66724 34497 ft 496 kts 60°
2026-04-25 16:46 5.88327 -72.63789 34794 ft 496 kts 60°
2026-04-25 16:46 5.90154 -72.60866 35069 ft 495 kts 60°
2026-04-25 16:46 5.91391 -72.58886 35244 ft 495 kts 60°
2026-04-25 16:47 5.93814 -72.55006 35544 ft 495 kts 60°
2026-04-25 16:47 5.95642 -72.52080 35852 ft 494 kts 60°
2026-04-25 16:47 5.97464 -72.49161 36149 ft 493 kts 60°
2026-04-25 16:47 5.99282 -72.46248 36433 ft 492 kts 60°
2026-04-25 16:48 6.01097 -72.43340 36706 ft 491 kts 60°
2026-04-25 16:48 6.02909 -72.40436 36957 ft 490 kts 60°
2026-04-25 16:48 6.04719 -72.37536 37207 ft 489 kts 60°
2026-04-25 16:48 6.06525 -72.34641 37464 ft 488 kts 60°
2026-04-25 16:49 6.08321 -72.31763 37716 ft 487 kts 60°
2026-04-25 16:49 6.10118 -72.28881 37987 ft 486 kts 60°
2026-04-25 16:49 6.11913 -72.26002 38218 ft 486 kts 60°
2026-04-25 16:49 6.13704 -72.23127 38405 ft 485 kts 60°
2026-04-25 16:50 6.15493 -72.20257 38588 ft 484 kts 60°
2026-04-25 16:50 6.17278 -72.17391 38813 ft 483 kts 60°
2026-04-25 16:50 6.19058 -72.14535 38991 ft 482 kts 60°
2026-04-25 16:50 6.20839 -72.11677 39033 ft 483 kts 60°
2026-04-25 16:51 6.24425 -72.05919 39058 ft 489 kts 60°
2026-04-25 16:51 6.27434 -72.01085 39057 ft 493 kts 60°
2026-04-25 16:52 6.31685 -71.94258 39012 ft 497 kts 60°
2026-04-25 16:52 6.35353 -71.88366 38998 ft 499 kts 59°
2026-04-25 16:53 6.40885 -71.79474 38993 ft 501 kts 59°
2026-04-25 16:54 6.44580 -71.73533 38993 ft 501 kts 59°
2026-04-25 16:54 6.48268 -71.67600 38992 ft 501 kts 59°
2026-04-25 16:55 6.51966 -71.61647 38987 ft 502 kts 59°
2026-04-25 16:55 6.55674 -71.55678 38992 ft 504 kts 59°
2026-04-25 16:56 6.59399 -71.49680 38968 ft 507 kts 59°
2026-04-25 16:56 6.63144 -71.43648 38965 ft 509 kts 59°
2026-04-25 16:57 6.66896 -71.37602 38966 ft 509 kts 59°
2026-04-25 16:57 6.70643 -71.31561 38966 ft 509 kts 59°
2026-04-25 16:58 6.74393 -71.25515 38961 ft 509 kts 59°
2026-04-25 16:58 6.78142 -71.19468 38966 ft 509 kts 59°
2026-04-25 16:59 6.81890 -71.13419 38965 ft 509 kts 59°
2026-04-25 16:59 6.85613 -71.07408 38965 ft 509 kts 59°
2026-04-25 17:00 6.89362 -71.01355 38966 ft 509 kts 59°
2026-04-25 17:00 6.93109 -70.95302 38965 ft 509 kts 59°
2026-04-25 17:01 6.96852 -70.89253 38966 ft 509 kts 59°
2026-04-25 17:01 7.00599 -70.83196 38964 ft 510 kts 59°
2026-04-25 17:02 7.04347 -70.77135 38966 ft 510 kts 60°
2026-04-25 17:02 7.07288 -70.70688 38968 ft 506 kts 75°
2026-04-25 17:03 7.09178 -70.63875 38967 ft 505 kts 77°
2026-04-25 17:03 7.10875 -70.57005 38966 ft 506 kts 78°
2026-04-25 17:04 7.12562 -70.50124 38964 ft 507 kts 78°
2026-04-25 17:04 7.14281 -70.43213 38961 ft 510 kts 78°
2026-04-25 17:05 7.16018 -70.36282 38959 ft 512 kts 77°
2026-04-25 17:05 7.18642 -70.25825 38960 ft 514 kts 77°
2026-04-25 17:06 7.20392 -70.18841 38962 ft 514 kts 77°
2026-04-25 17:06 7.22136 -70.11877 38960 ft 512 kts 77°
2026-04-25 17:07 7.23866 -70.04963 38961 ft 512 kts 77°
2026-04-25 17:07 7.25603 -69.98013 38960 ft 512 kts 77°
2026-04-25 17:08 7.27339 -69.91060 38957 ft 512 kts 77°
2026-04-25 17:08 7.29076 -69.84101 38963 ft 512 kts 77°
2026-04-25 17:09 7.30810 -69.77149 38960 ft 512 kts 77°
2026-04-25 17:09 7.32544 -69.70192 38961 ft 512 kts 77°
2026-04-25 17:10 7.34277 -69.63238 38958 ft 512 kts 77°
2026-04-25 17:10 7.36008 -69.56283 38957 ft 512 kts 77°
2026-04-25 17:11 7.37739 -69.49328 38955 ft 511 kts 78°
2026-04-25 17:11 7.39466 -69.42379 38955 ft 511 kts 78°
2026-04-25 17:12 7.41189 -69.35444 38956 ft 511 kts 78°
2026-04-25 17:12 7.42900 -69.28549 38955 ft 511 kts 78°
2026-04-25 17:13 7.44051 -69.23907 38952 ft 511 kts 78°
2026-04-25 17:13 7.46340 -69.14670 38953 ft 511 kts 78°
2026-04-25 17:14 7.48060 -69.07729 38949 ft 510 kts 78°
2026-04-25 17:14 7.49777 -69.00793 38950 ft 510 kts 78°
2026-04-25 17:15 7.51493 -68.93854 38950 ft 510 kts 78°
2026-04-25 17:15 7.53210 -68.86907 38950 ft 510 kts 78°
2026-04-25 17:16 7.54925 -68.79967 38948 ft 511 kts 78°
2026-04-25 17:16 7.56639 -68.73021 38946 ft 511 kts 78°
2026-04-25 17:17 7.58351 -68.66078 38941 ft 511 kts 78°
2026-04-25 17:17 7.60063 -68.59133 38941 ft 511 kts 78°
2026-04-25 17:18 7.61763 -68.52232 38941 ft 511 kts 78°
2026-04-25 17:18 7.63470 -68.45295 38939 ft 510 kts 78°
2026-04-25 17:19 7.65175 -68.38360 38939 ft 509 kts 78°
2026-04-25 17:19 7.66878 -68.31430 38938 ft 509 kts 78°
2026-04-25 17:20 7.68581 -68.24497 38936 ft 509 kts 78°
2026-04-25 17:20 7.70281 -68.17565 38934 ft 509 kts 77°
2026-04-25 17:21 7.71980 -68.10636 38938 ft 509 kts 78°
2026-04-25 17:21 7.73679 -68.03705 38939 ft 509 kts 78°
2026-04-25 17:22 7.74814 -67.99073 38937 ft 509 kts 78°
2026-04-25 17:22 7.77075 -67.89833 38930 ft 510 kts 78°
2026-04-25 17:23 7.78771 -67.82893 38933 ft 510 kts 78°
2026-04-25 17:23 7.80457 -67.75993 38933 ft 510 kts 78°
2026-04-25 17:24 7.82153 -67.69044 38930 ft 510 kts 78°
2026-04-25 17:24 7.83572 -67.63228 38931 ft 510 kts 78°
2026-04-25 17:25 7.85254 -67.56326 38930 ft 510 kts 78°
2026-04-25 17:25 7.86946 -67.49380 38930 ft 509 kts 78°
2026-04-25 17:26 7.88974 -67.42542 38932 ft 510 kts 69°
2026-04-25 17:26 7.91745 -67.35946 38928 ft 511 kts 68°
2026-04-25 17:27 7.94647 -67.29398 38928 ft 511 kts 67°
2026-04-25 17:27 7.97068 -67.23963 38925 ft 511 kts 67°
2026-04-25 17:28 8.00455 -67.16319 38923 ft 509 kts 67°
2026-04-25 17:28 8.03328 -67.09803 38925 ft 509 kts 67°
2026-04-25 17:29 8.06205 -67.03268 38925 ft 509 kts 67°
2026-04-25 17:29 8.09060 -66.96782 38925 ft 509 kts 67°
2026-04-25 17:30 8.11936 -66.90246 38924 ft 509 kts 67°
2026-04-25 17:30 8.14805 -66.83726 38922 ft 508 kts 68°
2026-04-25 17:31 8.17672 -66.77204 38920 ft 508 kts 68°
2026-04-25 17:31 8.20539 -66.70677 38919 ft 508 kts 68°
2026-04-25 17:32 8.23405 -66.64152 38922 ft 508 kts 68°
2026-04-25 17:32 8.26268 -66.57629 38922 ft 508 kts 68°
2026-04-25 17:33 8.29128 -66.51111 38922 ft 509 kts 68°
2026-04-25 17:33 8.31994 -66.44574 38922 ft 509 kts 68°
2026-04-25 17:34 8.34856 -66.38046 38922 ft 508 kts 68°
2026-04-25 17:34 8.37708 -66.31535 38922 ft 506 kts 68°
2026-04-25 17:35 8.40552 -66.25039 38923 ft 505 kts 68°
2026-04-25 17:35 8.43402 -66.18524 38926 ft 509 kts 68°
2026-04-25 17:36 8.46270 -66.11965 38924 ft 511 kts 68°
2026-04-25 17:36 8.49143 -66.05392 38924 ft 511 kts 68°
2026-04-25 17:37 8.52014 -65.98821 38922 ft 511 kts 68°
2026-04-25 17:37 8.54883 -65.92251 38920 ft 512 kts 67°
2026-04-25 17:38 8.57278 -65.86761 38926 ft 515 kts 67°
2026-04-25 17:38 8.60668 -65.78990 38925 ft 519 kts 67°
2026-04-25 17:39 8.63560 -65.72359 38922 ft 519 kts 67°
2026-04-25 17:39 8.66471 -65.65677 38922 ft 520 kts 67°
2026-04-25 17:40 8.69384 -65.58988 38923 ft 520 kts 67°
2026-04-25 17:40 8.72287 -65.52318 38922 ft 518 kts 67°
2026-04-25 17:41 8.75183 -65.45659 38922 ft 517 kts 67°
2026-04-25 17:41 8.78078 -65.39000 38922 ft 517 kts 67°
2026-04-25 17:42 8.80972 -65.32340 38919 ft 517 kts 67°
2026-04-25 17:42 8.83865 -65.25676 38920 ft 517 kts 67°
2026-04-25 17:43 8.86753 -65.19023 38922 ft 517 kts 67°
2026-04-25 17:43 8.89621 -65.12411 38922 ft 517 kts 67°
2026-04-25 17:44 8.92506 -65.05756 38922 ft 517 kts 67°
2026-04-25 17:44 8.95390 -64.99098 38919 ft 516 kts 67°
2026-04-25 17:45 8.97783 -64.93573 38919 ft 515 kts 67°
2026-04-25 17:45 9.01136 -64.85827 38919 ft 514 kts 67°
2026-04-25 17:46 9.03996 -64.79214 38922 ft 513 kts 67°
2026-04-25 17:46 9.06856 -64.72599 38922 ft 514 kts 67°
2026-04-25 17:47 9.09721 -64.65967 38920 ft 514 kts 67°
2026-04-25 17:47 9.12578 -64.59349 38919 ft 514 kts 67°
2026-04-25 17:48 9.16847 -64.49455 38917 ft 514 kts 67°
2026-04-25 17:49 9.19707 -64.42822 38922 ft 514 kts 67°
2026-04-25 17:49 9.22567 -64.36187 38921 ft 514 kts 68°
2026-04-25 17:50 9.25417 -64.29572 38919 ft 512 kts 68°
2026-04-25 17:50 9.28256 -64.22974 38916 ft 511 kts 68°
2026-04-25 17:51 9.31094 -64.16377 38919 ft 511 kts 68°
2026-04-25 17:51 9.33929 -64.09779 38922 ft 511 kts 68°
2026-04-25 17:52 9.36762 -64.03184 38918 ft 511 kts 68°
2026-04-25 17:52 9.39606 -63.96560 38919 ft 513 kts 68°
2026-04-25 17:53 9.42451 -63.89932 38922 ft 514 kts 68°
2026-04-25 17:53 9.45298 -63.83293 38914 ft 514 kts 68°
2026-04-25 17:54 9.48124 -63.76700 38912 ft 514 kts 68°
2026-04-25 17:54 9.50969 -63.70056 38911 ft 516 kts 68°
2026-04-25 17:55 9.53829 -63.63376 38910 ft 517 kts 68°
2026-04-25 17:55 9.56689 -63.56692 38903 ft 518 kts 68°
2026-04-25 17:56 9.59555 -63.49988 38902 ft 518 kts 68°
2026-04-25 17:56 9.62416 -63.43295 38900 ft 517 kts 68°
2026-04-25 17:57 9.65265 -63.36624 38899 ft 514 kts 68°
2026-04-25 17:57 9.68097 -63.29989 38897 ft 513 kts 68°
2026-04-25 17:58 9.70926 -63.23353 38890 ft 513 kts 68°
2026-04-25 17:58 9.73755 -63.16716 38902 ft 513 kts 68°
2026-04-25 17:59 9.76557 -63.10072 38896 ft 513 kts 68°
2026-04-25 17:59 9.79305 -63.03397 38897 ft 513 kts 68°
2026-04-25 18:00 9.82031 -62.96766 38895 ft 513 kts 68°
2026-04-25 18:00 9.84784 -62.90092 38903 ft 513 kts 68°
2026-04-25 18:01 9.87540 -62.83417 38903 ft 513 kts 68°
2026-04-25 18:01 9.90298 -62.76735 38900 ft 514 kts 68°
2026-04-25 18:02 9.93059 -62.70043 38902 ft 515 kts 68°
2026-04-25 18:02 9.95820 -62.63345 38903 ft 515 kts 68°
2026-04-25 18:03 9.98562 -62.56689 38903 ft 515 kts 68°
2026-04-25 18:03 10.01320 -62.49987 38906 ft 515 kts 68°
2026-04-25 18:04 10.04078 -62.43285 38904 ft 515 kts 68°
2026-04-25 18:04 10.06836 -62.36579 38910 ft 515 kts 68°
2026-04-25 18:05 10.09588 -62.29879 38911 ft 515 kts 68°
2026-04-25 18:05 10.12342 -62.23169 38911 ft 515 kts 68°
2026-04-25 18:06 10.15093 -62.16463 38911 ft 514 kts 68°
2026-04-25 18:06 10.17839 -62.09765 38914 ft 514 kts 68°
2026-04-25 18:07 10.20565 -62.03112 38919 ft 514 kts 68°
2026-04-25 18:07 10.23307 -61.96417 38919 ft 514 kts 68°
2026-04-25 18:08 10.26051 -61.89712 38915 ft 514 kts 68°
2026-04-25 18:08 10.28794 -61.83003 38919 ft 514 kts 68°
2026-04-25 18:09 10.31536 -61.76295 38923 ft 515 kts 68°
2026-04-25 18:09 10.34275 -61.69584 38922 ft 514 kts 68°
2026-04-25 18:10 10.37016 -61.62870 38919 ft 514 kts 68°
2026-04-25 18:10 10.39754 -61.56155 38924 ft 514 kts 68°
2026-04-25 18:11 10.42489 -61.49444 38927 ft 514 kts 68°
2026-04-25 18:11 10.45224 -61.42729 38927 ft 514 kts 68°
2026-04-25 18:12 10.47210 -61.35772 38928 ft 513 kts 79°
2026-04-25 18:12 10.48532 -61.28663 38932 ft 511 kts 81°
2026-04-25 18:13 10.49728 -61.21559 38932 ft 510 kts 82°
2026-04-25 18:13 10.50920 -61.14457 38933 ft 509 kts 82°
2026-04-25 18:14 10.52727 -61.03871 38933 ft 509 kts 81°
2026-04-25 18:14 10.53941 -60.96799 38936 ft 507 kts 81°
2026-04-25 18:15 10.55151 -60.89741 38934 ft 506 kts 81°
2026-04-25 18:15 10.56358 -60.82689 38935 ft 507 kts 82°
2026-04-25 18:16 10.57564 -60.75622 38933 ft 508 kts 82°
2026-04-25 18:17 10.59373 -60.64995 38934 ft 509 kts 82°
2026-04-25 18:17 10.60579 -60.57907 38933 ft 509 kts 82°
2026-04-25 18:18 10.61784 -60.50818 38932 ft 509 kts 82°
2026-04-25 18:18 10.62986 -60.43732 38933 ft 509 kts 82°
2026-04-25 18:19 10.64187 -60.36638 38934 ft 510 kts 82°
2026-04-25 18:19 10.65186 -60.30736 38933 ft 510 kts 82°
2026-04-25 18:20 10.66581 -60.22482 38929 ft 510 kts 82°
2026-04-25 18:20 10.67778 -60.15381 38930 ft 510 kts 82°
2026-04-25 18:21 10.68782 -60.09421 38933 ft 511 kts 82°
2026-04-25 18:21 10.69982 -60.02291 38933 ft 512 kts 82°
2026-04-25 18:22 10.71172 -59.95211 38933 ft 512 kts 82°
2026-04-25 18:22 10.72368 -59.88080 38938 ft 512 kts 82°
2026-04-25 18:23 10.73566 -59.80925 38925 ft 515 kts 82°
2026-04-25 18:23 10.74770 -59.73731 38927 ft 516 kts 82°
2026-04-25 18:24 10.75974 -59.66530 38932 ft 517 kts 82°
2026-04-25 18:24 10.77176 -59.59322 38929 ft 518 kts 82°
2026-04-25 18:25 10.78381 -59.52084 38930 ft 520 kts 82°
2026-04-25 18:25 10.79588 -59.44827 38930 ft 521 kts 82°
2026-04-25 18:26 10.80795 -59.37559 38934 ft 521 kts 82°
2026-04-25 18:26 10.81992 -59.30338 38929 ft 521 kts 81°
2026-04-25 18:27 10.83197 -59.23057 38931 ft 523 kts 81°
2026-04-25 18:27 10.84403 -59.15763 38930 ft 523 kts 81°
2026-04-25 18:28 10.85608 -59.08467 38930 ft 523 kts 81°
2026-04-25 18:28 10.86803 -59.01216 38929 ft 523 kts 81°
2026-04-25 18:29 10.88601 -58.90287 38930 ft 522 kts 81°
2026-04-25 18:30 10.90991 -58.75718 38933 ft 522 kts 81°
2026-04-25 18:30 10.92177 -58.68478 38933 ft 522 kts 81°
2026-04-25 18:31 10.93368 -58.61191 38930 ft 522 kts 81°
2026-04-25 18:31 10.94558 -58.53903 38933 ft 522 kts 81°
2026-04-25 18:32 10.95738 -58.46660 38930 ft 522 kts 81°
2026-04-25 18:32 10.96922 -58.39381 38930 ft 521 kts 81°
2026-04-25 18:33 10.98104 -58.32107 38930 ft 521 kts 81°
2026-04-25 18:33 10.99284 -58.24831 38933 ft 521 kts 81°
2026-04-25 18:34 11.00462 -58.17555 38932 ft 521 kts 81°
2026-04-25 18:34 11.01631 -58.10331 38933 ft 521 kts 81°
2026-04-25 18:35 11.02804 -58.03062 38933 ft 521 kts 81°
2026-04-25 18:35 11.03978 -57.95783 38932 ft 521 kts 81°
2026-04-25 18:36 11.05149 -57.88506 38932 ft 521 kts 81°
2026-04-25 18:36 11.06319 -57.81226 38933 ft 521 kts 81°
2026-04-25 18:37 11.07478 -57.73999 38932 ft 521 kts 81°
2026-04-25 18:37 11.08646 -57.66711 38932 ft 521 kts 81°
2026-04-25 18:38 11.09812 -57.59422 38938 ft 522 kts 81°
2026-04-25 18:38 11.10979 -57.52117 38938 ft 523 kts 81°
2026-04-25 18:39 11.12135 -57.44866 38935 ft 523 kts 81°
2026-04-25 18:39 11.13298 -57.37557 38935 ft 523 kts 81°
2026-04-25 18:40 11.14460 -57.30244 38936 ft 524 kts 81°
2026-04-25 18:40 11.15622 -57.22920 38936 ft 524 kts 81°
2026-04-25 18:41 11.16776 -57.15641 38939 ft 524 kts 81°
2026-04-25 18:41 11.17935 -57.08314 38938 ft 524 kts 81°
2026-04-25 18:42 11.18896 -57.02227 38939 ft 524 kts 81°
2026-04-25 18:42 11.20246 -56.93667 38938 ft 524 kts 81°
2026-04-25 18:43 11.21390 -56.86399 38939 ft 524 kts 81°
2026-04-25 18:43 11.22540 -56.79079 38938 ft 523 kts 81°
2026-04-25 18:44 11.23729 -56.71784 38932 ft 523 kts 78°
2026-04-25 18:44 11.25810 -56.64734 38968 ft 523 kts 71°
2026-04-25 18:45 11.28201 -56.57721 38968 ft 524 kts 70°
2026-04-25 18:45 11.30643 -56.50729 39041 ft 523 kts 70°
2026-04-25 18:46 11.33071 -56.43738 38999 ft 524 kts 70°
2026-04-25 18:46 11.35470 -56.36779 38972 ft 525 kts 70°
2026-04-25 18:47 11.37867 -56.29804 39404 ft 515 kts 71°
2026-04-25 18:47 11.39036 -56.26400 39895 ft 505 kts 71°
2026-04-25 18:47 11.40195 -56.23023 40134 ft 503 kts 71°
2026-04-25 18:48 11.41349 -56.19661 40317 ft 502 kts 71°
2026-04-25 18:48 11.42502 -56.16301 40456 ft 501 kts 71°
2026-04-25 18:48 11.43653 -56.12947 40595 ft 501 kts 71°
2026-04-25 18:48 11.44800 -56.09599 40753 ft 500 kts 71°
2026-04-25 18:49 11.47080 -56.02946 40925 ft 501 kts 71°
2026-04-25 18:49 11.49377 -55.96237 40942 ft 503 kts 71°
2026-04-25 18:50 11.51690 -55.89477 40942 ft 507 kts 71°
2026-04-25 18:50 11.54013 -55.82678 40939 ft 509 kts 71°
2026-04-25 18:51 11.55951 -55.77003 40943 ft 511 kts 71°
2026-04-25 18:51 11.58667 -55.69045 40949 ft 512 kts 71°
2026-04-25 18:52 11.61009 -55.62176 40942 ft 512 kts 71°
2026-04-25 18:52 11.63348 -55.55309 40939 ft 513 kts 71°
2026-04-25 18:53 11.65687 -55.48439 40947 ft 512 kts 71°
2026-04-25 18:53 11.68004 -55.41626 40948 ft 512 kts 71°
2026-04-25 18:54 11.71498 -55.31339 40946 ft 511 kts 71°
2026-04-25 18:55 11.73823 -55.24488 40941 ft 511 kts 72°
2026-04-25 18:55 11.76147 -55.17634 40952 ft 511 kts 72°
2026-04-25 18:56 11.78454 -55.10826 40948 ft 512 kts 72°
2026-04-25 18:56 11.80777 -55.03963 40940 ft 512 kts 72°
2026-04-25 18:57 11.83097 -54.97097 40944 ft 512 kts 72°
2026-04-25 18:57 11.85417 -54.90229 40949 ft 511 kts 72°
2026-04-25 18:58 11.87716 -54.83414 40947 ft 511 kts 72°
2026-04-25 18:58 11.91188 -54.73120 40953 ft 511 kts 72°
2026-04-25 18:59 11.95807 -54.59401 40952 ft 511 kts 72°
2026-04-25 19:00 11.99249 -54.49156 40956 ft 511 kts 72°
2026-04-25 19:01 12.02699 -54.38877 40954 ft 509 kts 72°
2026-04-25 19:01 12.04994 -54.32032 40950 ft 509 kts 72°
2026-04-25 19:02 12.08417 -54.21810 40952 ft 509 kts 72°
2026-04-25 19:03 12.11456 -54.12728 40953 ft 507 kts 72°
2026-04-25 19:03 12.14120 -54.04753 40953 ft 507 kts 72°
2026-04-25 19:04 12.17520 -53.94565 40954 ft 507 kts 72°
2026-04-25 19:05 12.22075 -53.80891 40953 ft 508 kts 72°
2026-04-25 19:06 12.24353 -53.74046 40957 ft 508 kts 72°
2026-04-25 19:06 12.27741 -53.63856 40956 ft 506 kts 72°
2026-04-25 19:07 12.31133 -53.53633 40956 ft 506 kts 72°
2026-04-25 19:08 12.34520 -53.43412 40956 ft 506 kts 72°
2026-04-25 19:09 12.38635 -53.30976 40960 ft 507 kts 72°
2026-04-25 19:10 12.42410 -53.19552 40960 ft 508 kts 72°
2026-04-25 19:10 12.44652 -53.12756 40961 ft 507 kts 72°
2026-04-25 19:11 12.46908 -53.05915 40955 ft 507 kts 73°
2026-04-25 19:11 12.49158 -52.99081 40959 ft 507 kts 73°
2026-04-25 19:12 12.51409 -52.92241 40959 ft 506 kts 73°
2026-04-25 19:12 12.53638 -52.85463 40961 ft 506 kts 73°
2026-04-25 19:13 12.55878 -52.78640 40959 ft 506 kts 73°
2026-04-25 19:13 12.58120 -52.71807 40962 ft 507 kts 73°
2026-04-25 19:14 12.60364 -52.64961 40961 ft 508 kts 73°
2026-04-25 19:14 12.62595 -52.58150 40961 ft 508 kts 73°
2026-04-25 19:15 12.64837 -52.51297 40965 ft 508 kts 73°
2026-04-25 19:15 12.67078 -52.44441 40966 ft 507 kts 73°
2026-04-25 19:16 12.69315 -52.37592 40964 ft 507 kts 73°
2026-04-25 19:16 12.71534 -52.30790 40966 ft 507 kts 73°
2026-04-25 19:17 12.73767 -52.23940 40965 ft 507 kts 73°
2026-04-25 19:17 12.75996 -52.17094 40967 ft 507 kts 73°
2026-04-25 19:18 12.78226 -52.10236 40968 ft 508 kts 73°
2026-04-25 19:18 12.80446 -52.03405 40967 ft 508 kts 73°
2026-04-25 19:19 12.82676 -51.96539 40968 ft 508 kts 73°
2026-04-25 19:19 12.84901 -51.89678 40963 ft 507 kts 73°
2026-04-25 19:20 12.87127 -51.82809 40968 ft 507 kts 73°
2026-04-25 19:20 12.89348 -51.75949 40965 ft 507 kts 73°
2026-04-25 19:21 12.91552 -51.69134 40962 ft 507 kts 73°
2026-04-25 19:21 12.94874 -51.58848 40969 ft 507 kts 73°
2026-04-25 19:22 12.97092 -51.51975 40968 ft 508 kts 73°
2026-04-25 19:23 13.00401 -51.41704 40968 ft 508 kts 73°
2026-04-25 19:23 13.03722 -51.31382 40967 ft 508 kts 73°
2026-04-25 19:24 13.05934 -51.24497 40967 ft 508 kts 73°
2026-04-25 19:25 13.10340 -51.10765 40965 ft 508 kts 73°
2026-04-25 19:25 13.12545 -51.03882 40965 ft 508 kts 73°
2026-04-25 19:26 13.14755 -50.96976 40971 ft 509 kts 73°
2026-04-25 19:26 13.16948 -50.90118 40973 ft 510 kts 73°
2026-04-25 19:27 13.18798 -50.84325 40973 ft 510 kts 73°
2026-04-25 19:27 13.21360 -50.76295 40974 ft 510 kts 73°
2026-04-25 19:28 13.23564 -50.69382 40974 ft 510 kts 73°
2026-04-25 19:28 13.25767 -50.62465 40970 ft 510 kts 73°
2026-04-25 19:29 13.27952 -50.55594 40971 ft 510 kts 73°
2026-04-25 19:29 13.30150 -50.48676 40972 ft 510 kts 73°
2026-04-25 19:30 13.32348 -50.41752 40978 ft 510 kts 73°
2026-04-25 19:30 13.34545 -50.34823 40975 ft 511 kts 73°
2026-04-25 19:31 13.36728 -50.27933 40974 ft 511 kts 73°
2026-04-25 19:31 13.38924 -50.20993 40977 ft 511 kts 73°
2026-04-25 19:32 13.41117 -50.14056 40979 ft 511 kts 73°
2026-04-25 19:32 13.42937 -50.08291 40975 ft 511 kts 73°
2026-04-25 19:33 13.45483 -50.00221 40975 ft 511 kts 73°
2026-04-25 19:33 13.47671 -49.93278 40978 ft 511 kts 73°
2026-04-25 19:34 13.49858 -49.86330 40982 ft 511 kts 73°
2026-04-25 19:34 13.52046 -49.79372 40982 ft 512 kts 73°
2026-04-25 19:35 13.54231 -49.72418 40979 ft 512 kts 73°
2026-04-25 19:35 13.56402 -49.65500 40976 ft 512 kts 73°
2026-04-25 19:36 13.58587 -49.58529 40974 ft 512 kts 73°
2026-04-25 19:36 13.60766 -49.51568 40974 ft 512 kts 73°
2026-04-25 19:37 13.62932 -49.44646 40983 ft 511 kts 73°
2026-04-25 19:37 13.65104 -49.37694 40982 ft 511 kts 73°
2026-04-25 19:38 13.67277 -49.30730 40982 ft 512 kts 73°
2026-04-25 19:38 13.69448 -49.23767 40982 ft 512 kts 73°
2026-04-25 19:39 13.71622 -49.16787 40976 ft 512 kts 73°
2026-04-25 19:39 13.73776 -49.09862 40980 ft 512 kts 73°
2026-04-25 19:40 13.75942 -49.02895 40987 ft 511 kts 73°
2026-04-25 19:40 13.78105 -48.95925 40986 ft 511 kts 73°
2026-04-25 19:41 13.80265 -48.88959 40984 ft 511 kts 73°
2026-04-25 19:41 13.81697 -48.84339 40977 ft 511 kts 73°
2026-04-25 19:42 13.84568 -48.75062 40983 ft 511 kts 73°
2026-04-25 19:42 13.86723 -48.68089 40986 ft 511 kts 73°
2026-04-25 19:43 13.88874 -48.61121 40988 ft 511 kts 73°
2026-04-25 19:43 13.91011 -48.54193 40983 ft 511 kts 73°
2026-04-25 19:44 13.93158 -48.47223 40985 ft 511 kts 73°
2026-04-25 19:44 13.95304 -48.40249 40985 ft 511 kts 73°
2026-04-25 19:45 13.97447 -48.33275 40988 ft 511 kts 73°
2026-04-25 19:45 13.99574 -48.26347 40979 ft 512 kts 73°
2026-04-25 19:46 14.01718 -48.19357 40985 ft 512 kts 73°
2026-04-25 19:46 14.03859 -48.12368 40985 ft 511 kts 73°
2026-04-25 19:47 14.05996 -48.05383 40986 ft 511 kts 73°
2026-04-25 19:47 14.08130 -47.98402 40989 ft 511 kts 73°
2026-04-25 19:48 14.10248 -47.91466 40990 ft 511 kts 73°
2026-04-25 19:48 14.12377 -47.84483 40990 ft 511 kts 73°
2026-04-25 19:49 14.13800 -47.79813 40984 ft 511 kts 73°
2026-04-25 19:49 14.16634 -47.70501 40990 ft 512 kts 73°
2026-04-25 19:50 14.19812 -47.60042 40988 ft 512 kts 73°
2026-04-25 19:51 14.21938 -47.53033 40993 ft 512 kts 73°
2026-04-25 19:51 14.24061 -47.46029 40993 ft 512 kts 73°
2026-04-25 19:52 14.26184 -47.39015 40993 ft 512 kts 73°
2026-04-25 19:52 14.28289 -47.32053 40994 ft 512 kts 73°
2026-04-25 19:53 14.30410 -47.25030 40994 ft 513 kts 73°
2026-04-25 19:53 14.32531 -47.18001 40993 ft 514 kts 73°
2026-04-25 19:54 14.34650 -47.10968 40991 ft 514 kts 73°
2026-04-25 19:54 14.36768 -47.03930 40990 ft 514 kts 73°
2026-04-25 19:55 14.38869 -46.96943 40997 ft 514 kts 73°
2026-04-25 19:55 14.40982 -46.89904 40993 ft 514 kts 73°
2026-04-25 19:56 14.43093 -46.82865 40993 ft 514 kts 73°
2026-04-25 19:56 14.45203 -46.75820 40994 ft 514 kts 73°
2026-04-25 19:57 14.47298 -46.68819 41000 ft 515 kts 73°
2026-04-25 19:57 14.49408 -46.61757 40995 ft 515 kts 73°
2026-04-25 19:58 14.51515 -46.54700 40997 ft 515 kts 73°
2026-04-25 19:58 14.53621 -46.47637 41000 ft 515 kts 73°
2026-04-25 19:59 14.55709 -46.40624 40999 ft 515 kts 73°
2026-04-25 19:59 14.57811 -46.33557 40998 ft 515 kts 73°
2026-04-25 20:00 14.59913 -46.26482 41004 ft 515 kts 73°
2026-04-25 20:00 14.62014 -46.19399 41001 ft 516 kts 73°
2026-04-25 20:01 14.65152 -46.08809 41004 ft 517 kts 73°
2026-04-25 20:01 14.67250 -46.01715 41005 ft 517 kts 73°
2026-04-25 20:02 14.69347 -45.94619 41003 ft 517 kts 73°
2026-04-25 20:02 14.71442 -45.87517 41004 ft 517 kts 73°
2026-04-25 20:03 14.73521 -45.80465 41009 ft 517 kts 73°
2026-04-25 20:03 14.75615 -45.73349 41008 ft 518 kts 73°
2026-04-25 20:04 14.77705 -45.66241 41007 ft 518 kts 73°
2026-04-25 20:04 14.79799 -45.59112 41007 ft 518 kts 73°
2026-04-25 20:05 14.81871 -45.52046 41001 ft 518 kts 73°
2026-04-25 20:05 14.83957 -45.44925 41010 ft 518 kts 73°
2026-04-25 20:06 14.86041 -45.37802 41007 ft 518 kts 73°
2026-04-25 20:06 14.88122 -45.30680 41010 ft 518 kts 73°
2026-04-25 20:07 14.90203 -45.23550 41012 ft 518 kts 73°
2026-04-25 20:07 14.92267 -45.16467 41011 ft 518 kts 73°
2026-04-25 20:08 14.94343 -45.09335 41010 ft 518 kts 73°
2026-04-25 20:08 14.96415 -45.02209 41010 ft 518 kts 73°
2026-04-25 20:09 14.98487 -44.95075 41007 ft 518 kts 73°
2026-04-25 20:09 15.00540 -44.87993 41010 ft 518 kts 73°
2026-04-25 20:10 15.02608 -44.80854 41010 ft 518 kts 73°
2026-04-25 20:10 15.04671 -44.73721 41010 ft 518 kts 73°
2026-04-25 20:11 15.06732 -44.66586 41012 ft 518 kts 73°
2026-04-25 20:11 15.08778 -44.59498 41015 ft 518 kts 73°
2026-04-25 20:12 15.10835 -44.52359 41015 ft 518 kts 73°
2026-04-25 20:12 15.12209 -44.47587 41015 ft 518 kts 73°
2026-04-25 20:13 15.14941 -44.38080 41015 ft 518 kts 73°
2026-04-25 20:13 15.16978 -44.30985 41015 ft 518 kts 73°
2026-04-25 20:14 15.19026 -44.23844 41015 ft 518 kts 73°
2026-04-25 20:14 15.21072 -44.16695 41020 ft 518 kts 73°
2026-04-25 20:15 15.23119 -44.09537 41021 ft 518 kts 73°
2026-04-25 20:15 15.25149 -44.02428 41020 ft 518 kts 73°
2026-04-25 20:16 15.27193 -43.95264 41020 ft 519 kts 73°
2026-04-25 20:16 15.29232 -43.88102 41020 ft 519 kts 73°
2026-04-25 20:17 15.31270 -43.80938 41021 ft 519 kts 73°
2026-04-25 20:17 15.33295 -43.73810 41020 ft 519 kts 73°
2026-04-25 20:18 15.35331 -43.66634 41023 ft 519 kts 73°
2026-04-25 20:18 15.37365 -43.59456 41023 ft 519 kts 73°
2026-04-25 20:19 15.39398 -43.52273 41020 ft 519 kts 73°
2026-04-25 20:19 15.41415 -43.45134 41020 ft 520 kts 73°
2026-04-25 20:20 15.43442 -43.37950 41021 ft 520 kts 73°
2026-04-25 20:20 15.45471 -43.30750 41026 ft 520 kts 73°
2026-04-25 20:21 15.47497 -43.23552 41030 ft 520 kts 73°
2026-04-25 20:21 15.49508 -43.16398 41028 ft 521 kts 73°
2026-04-25 20:22 15.50863 -43.11573 41023 ft 521 kts 73°
2026-04-25 20:22 15.53555 -43.01970 41020 ft 521 kts 73°
2026-04-25 20:23 15.55577 -42.94748 41026 ft 521 kts 73°
2026-04-25 20:23 15.57582 -42.87578 41026 ft 521 kts 73°
2026-04-25 20:24 15.59599 -42.80351 41027 ft 521 kts 73°
2026-04-25 20:24 15.61611 -42.73135 41030 ft 521 kts 73°
2026-04-25 20:25 15.63622 -42.65910 41032 ft 521 kts 73°
2026-04-25 20:25 15.65632 -42.58681 41032 ft 521 kts 73°
2026-04-25 20:26 15.67625 -42.51505 41031 ft 521 kts 73°
2026-04-25 20:26 15.69628 -42.44281 41031 ft 521 kts 73°
2026-04-25 20:27 15.71630 -42.37052 41030 ft 521 kts 73°
2026-04-25 20:27 15.73629 -42.29820 41033 ft 521 kts 73°
2026-04-25 20:28 15.75613 -42.22636 41035 ft 521 kts 73°
2026-04-25 20:28 15.77607 -42.15403 41038 ft 521 kts 73°
2026-04-25 20:29 15.79600 -42.08166 41036 ft 521 kts 73°
2026-04-25 20:29 15.81589 -42.00934 41035 ft 521 kts 73°
2026-04-25 20:30 15.83576 -41.93698 41040 ft 521 kts 73°
2026-04-25 20:30 15.85548 -41.86505 41039 ft 521 kts 73°
2026-04-25 20:31 15.87530 -41.79267 41041 ft 521 kts 73°
2026-04-25 20:31 15.89512 -41.72019 41039 ft 521 kts 73°
2026-04-25 20:32 15.91490 -41.64775 41040 ft 522 kts 73°
2026-04-25 20:32 15.93453 -41.57574 41040 ft 522 kts 73°
2026-04-25 20:33 15.95429 -41.50317 41043 ft 522 kts 73°
2026-04-25 20:33 15.96749 -41.45465 41042 ft 522 kts 73°
2026-04-25 20:34 15.99374 -41.35796 41043 ft 522 kts 73°
2026-04-25 20:34 16.01345 -41.28526 41042 ft 522 kts 73°
2026-04-25 20:35 16.03300 -41.21305 41043 ft 523 kts 73°
2026-04-25 20:35 16.05266 -41.14035 41041 ft 523 kts 73°
2026-04-25 20:36 16.07230 -41.06758 41043 ft 523 kts 73°
2026-04-25 20:36 16.09191 -40.99484 41045 ft 523 kts 73°
2026-04-25 20:37 16.11136 -40.92256 41046 ft 523 kts 73°
2026-04-25 20:37 16.13094 -40.84972 41053 ft 523 kts 73°
2026-04-25 20:38 16.15050 -40.77683 41045 ft 523 kts 73°
2026-04-25 20:38 16.17003 -40.70395 41050 ft 523 kts 73°
2026-04-25 20:39 16.18942 -40.63148 41050 ft 523 kts 73°
2026-04-25 20:39 16.20245 -40.58273 41047 ft 524 kts 73°
2026-04-25 20:40 16.22840 -40.48552 41047 ft 524 kts 73°
2026-04-25 20:40 16.24786 -40.41247 41049 ft 524 kts 73°
2026-04-25 20:41 16.26730 -40.33937 41051 ft 524 kts 73°
2026-04-25 20:41 16.28660 -40.26674 41054 ft 524 kts 73°
2026-04-25 20:42 16.30599 -40.19360 41047 ft 524 kts 73°
2026-04-25 20:42 16.32537 -40.12043 41053 ft 525 kts 73°
2026-04-25 20:43 16.34474 -40.04717 41053 ft 524 kts 73°
2026-04-25 20:43 16.36395 -39.97443 41055 ft 525 kts 73°
2026-04-25 20:44 16.38326 -39.90118 41056 ft 525 kts 73°
2026-04-25 20:44 16.40257 -39.82785 41046 ft 525 kts 73°
2026-04-25 20:45 16.42183 -39.75456 41055 ft 525 kts 73°
2026-04-25 20:45 16.44094 -39.68175 41055 ft 525 kts 73°
2026-04-25 20:46 16.46015 -39.60844 41053 ft 525 kts 73°
2026-04-25 20:46 16.47934 -39.53510 41052 ft 525 kts 73°
2026-04-25 20:47 16.49853 -39.46162 41055 ft 525 kts 73°
2026-04-25 20:47 16.51757 -39.38866 41058 ft 526 kts 73°
2026-04-25 20:48 16.53673 -39.31509 41058 ft 526 kts 73°
2026-04-25 20:48 16.55586 -39.24153 41061 ft 526 kts 73°
2026-04-25 20:49 16.57496 -39.16797 41058 ft 526 kts 73°
2026-04-25 20:49 16.59391 -39.09487 41054 ft 526 kts 73°
2026-04-25 20:50 16.61299 -39.02117 41056 ft 527 kts 73°
2026-04-25 20:50 16.63204 -38.94746 41060 ft 527 kts 73°
2026-04-25 20:51 16.64784 -38.88621 41057 ft 527 kts 73°
2026-04-25 20:51 16.66993 -38.80048 41058 ft 527 kts 73°
2026-04-25 20:52 16.68265 -38.75105 41061 ft 527 kts 73°
2026-04-25 20:52 16.70787 -38.65286 41058 ft 527 kts 73°
2026-04-25 20:53 16.72681 -38.57900 41061 ft 527 kts 73°
2026-04-25 20:53 16.74253 -38.51762 41061 ft 527 kts 73°
2026-04-25 20:54 16.76446 -38.43182 41065 ft 527 kts 73°
2026-04-25 20:54 16.78333 -38.35791 41062 ft 527 kts 73°
2026-04-25 20:55 16.80217 -38.28393 41065 ft 527 kts 73°
2026-04-25 20:55 16.82100 -38.20993 41064 ft 527 kts 74°
2026-04-25 20:56 16.83661 -38.14846 41060 ft 528 kts 74°
2026-04-25 20:56 16.85542 -38.07430 41059 ft 528 kts 74°
2026-04-25 20:57 16.87417 -38.00026 41065 ft 528 kts 74°
2026-04-25 20:57 16.89292 -37.92611 41063 ft 528 kts 74°
2026-04-25 20:58 16.91166 -37.85188 41063 ft 529 kts 74°
2026-04-25 20:58 16.93038 -37.77758 41064 ft 529 kts 74°
2026-04-25 20:59 16.94905 -37.70335 41070 ft 529 kts 74°
2026-04-25 20:59 16.96774 -37.62894 41068 ft 529 kts 74°
2026-04-25 21:00 16.98326 -37.56710 41069 ft 529 kts 74°
2026-04-25 21:00 16.99807 -37.47868 41074 ft 531 kts 88°
2026-04-25 21:01 16.99831 -37.44015 41072 ft 532 kts 90°
2026-04-25 21:01 16.99624 -37.36286 41073 ft 532 kts 92°
2026-04-25 21:02 16.99318 -37.28602 41068 ft 533 kts 92°
2026-04-25 21:02 16.99020 -37.20823 41067 ft 533 kts 92°
2026-04-25 21:03 16.98745 -37.13089 41071 ft 533 kts 91°
2026-04-25 21:03 16.98477 -37.05404 41075 ft 533 kts 91°
2026-04-25 21:04 16.98204 -36.97666 41071 ft 533 kts 91°
2026-04-25 21:04 16.97927 -36.89920 41068 ft 534 kts 91°
2026-04-25 21:05 16.97647 -36.82178 41070 ft 534 kts 91°
2026-04-25 21:05 16.97364 -36.74425 41072 ft 534 kts 91°
2026-04-25 21:06 16.97078 -36.66683 41075 ft 534 kts 91°
2026-04-25 21:06 16.96789 -36.58930 41071 ft 535 kts 92°
2026-04-25 21:07 16.96497 -36.51191 41073 ft 533 kts 92°
2026-04-25 21:07 16.96203 -36.43470 41070 ft 532 kts 92°
2026-04-25 21:08 16.95907 -36.35787 41072 ft 532 kts 92°
2026-04-25 21:08 16.95607 -36.28058 41073 ft 532 kts 92°
2026-04-25 21:09 16.95152 -36.16468 41071 ft 533 kts 92°
2026-04-25 21:09 16.94844 -36.08728 41072 ft 533 kts 92°
2026-04-25 21:10 16.94533 -36.00987 41071 ft 533 kts 92°
2026-04-25 21:10 16.94219 -35.93244 41076 ft 534 kts 92°
2026-04-25 21:11 16.93902 -35.85487 41076 ft 535 kts 92°
2026-04-25 21:11 16.93582 -35.77729 41073 ft 535 kts 92°
2026-04-25 21:12 16.93258 -35.69963 41078 ft 535 kts 92°
2026-04-25 21:12 16.92987 -35.63511 41076 ft 535 kts 92°
2026-04-25 21:13 16.92602 -35.54432 41075 ft 535 kts 92°
2026-04-25 21:13 16.92270 -35.46665 41072 ft 536 kts 92°
2026-04-25 21:14 16.91935 -35.38896 41070 ft 535 kts 92°
2026-04-25 21:14 16.91597 -35.31140 41074 ft 534 kts 92°
2026-04-25 21:15 16.91256 -35.23392 41072 ft 534 kts 92°
2026-04-25 21:15 16.90915 -35.15689 41076 ft 535 kts 92°
2026-04-25 21:16 16.90568 -35.07922 41075 ft 536 kts 92°
2026-04-25 21:16 16.90218 -35.00158 41071 ft 536 kts 92°
2026-04-25 21:17 16.89865 -34.92392 41071 ft 536 kts 92°
2026-04-25 21:17 16.89508 -34.84605 41073 ft 536 kts 92°
2026-04-25 21:18 16.89148 -34.76828 41070 ft 537 kts 92°
2026-04-25 21:18 16.88786 -34.69043 41072 ft 537 kts 92°
2026-04-25 21:19 16.88420 -34.61250 41071 ft 537 kts 92°
2026-04-25 21:19 16.88051 -34.53462 41071 ft 537 kts 92°
2026-04-25 21:20 16.87742 -34.46981 41076 ft 537 kts 92°
2026-04-25 21:20 16.87304 -34.37875 41072 ft 538 kts 92°
2026-04-25 21:21 16.86926 -34.30077 41070 ft 538 kts 92°
2026-04-25 21:21 16.86545 -34.22275 41061 ft 538 kts 92°
2026-04-25 21:22 16.86162 -34.14488 41074 ft 537 kts 92°
2026-04-25 21:22 16.85776 -34.06712 41068 ft 536 kts 92°
2026-04-25 21:23 16.85389 -33.98987 41068 ft 536 kts 92°
2026-04-25 21:23 16.84997 -33.91212 41072 ft 536 kts 92°
2026-04-25 21:24 16.84603 -33.83438 41070 ft 536 kts 92°
2026-04-25 21:24 16.84205 -33.75661 41068 ft 536 kts 92°
2026-04-25 21:25 16.83805 -33.67888 41068 ft 537 kts 92°
2026-04-25 21:25 16.83400 -33.60101 41068 ft 538 kts 92°
2026-04-25 21:26 16.82993 -33.52308 41069 ft 538 kts 92°
2026-04-25 21:26 16.82582 -33.44509 41065 ft 538 kts 92°
2026-04-25 21:27 16.82168 -33.36706 41072 ft 539 kts 92°
2026-04-25 21:27 16.81752 -33.28899 41068 ft 539 kts 92°
2026-04-25 21:28 16.81331 -33.21084 41069 ft 539 kts 92°
2026-04-25 21:28 16.80908 -33.13274 41071 ft 540 kts 92°
2026-04-25 21:29 16.80481 -33.05447 41067 ft 540 kts 92°
2026-04-25 21:29 16.80051 -32.97617 41056 ft 540 kts 93°
2026-04-25 21:30 16.79619 -32.89809 41066 ft 538 kts 93°
2026-04-25 21:30 16.79259 -32.83335 41065 ft 538 kts 93°
2026-04-25 21:31 16.78751 -32.74281 41066 ft 538 kts 93°
2026-04-25 21:31 16.78312 -32.66488 41066 ft 538 kts 93°
2026-04-25 21:32 16.77869 -32.58698 41067 ft 538 kts 93°
2026-04-25 21:32 16.77423 -32.50902 41066 ft 539 kts 93°
2026-04-25 21:33 16.76973 -32.43094 41063 ft 539 kts 93°
2026-04-25 21:33 16.76521 -32.35291 41062 ft 539 kts 93°
2026-04-25 21:34 16.76065 -32.27482 41063 ft 539 kts 93°
2026-04-25 21:34 16.75607 -32.19672 41063 ft 539 kts 93°
2026-04-25 21:35 16.75145 -32.11862 41066 ft 539 kts 93°
2026-04-25 21:35 16.74680 -32.04051 41069 ft 540 kts 93°
2026-04-25 21:36 16.74212 -31.96233 41065 ft 540 kts 93°
2026-04-25 21:36 16.73741 -31.88410 41062 ft 540 kts 93°
2026-04-25 21:37 16.73427 -31.83230 41063 ft 540 kts 93°
2026-04-25 21:37 16.72790 -31.72765 41066 ft 541 kts 93°
2026-04-25 21:38 16.72314 -31.65002 41063 ft 540 kts 93°
2026-04-25 21:38 16.71831 -31.57192 41067 ft 539 kts 93°
2026-04-25 21:39 16.71346 -31.49383 41069 ft 540 kts 93°
2026-04-25 21:39 16.70857 -31.41563 41063 ft 540 kts 93°
2026-04-25 21:40 16.70365 -31.33742 41061 ft 540 kts 93°
2026-04-25 21:40 16.69870 -31.25924 41059 ft 540 kts 93°
2026-04-25 21:41 16.69373 -31.18104 41062 ft 540 kts 93°
2026-04-25 21:41 16.68872 -31.10284 41064 ft 540 kts 93°
2026-04-25 21:42 16.68368 -31.02465 41061 ft 540 kts 93°
2026-04-25 21:42 16.67862 -30.94644 41058 ft 540 kts 93°
2026-04-25 21:43 16.67352 -30.86817 41057 ft 541 kts 93°
2026-04-25 21:43 16.66839 -30.78988 41059 ft 541 kts 93°
2026-04-25 21:44 16.66323 -30.71166 41060 ft 541 kts 93°
2026-04-25 21:45 16.65631 -30.60746 41059 ft 541 kts 93°
2026-04-25 21:45 16.65023 -30.51639 41057 ft 542 kts 94°
2026-04-25 21:46 16.64581 -30.45073 41059 ft 542 kts 94°
2026-04-25 21:46 16.64052 -30.37241 41053 ft 541 kts 94°
2026-04-25 21:47 16.63521 -30.29427 41056 ft 540 kts 94°
2026-04-25 21:47 16.62990 -30.21654 41055 ft 540 kts 94°
2026-04-25 21:48 16.62454 -30.13844 41053 ft 540 kts 94°
2026-04-25 21:48 16.61914 -30.06032 41057 ft 540 kts 94°
2026-04-25 21:49 16.61371 -29.98216 41055 ft 541 kts 94°
2026-04-25 21:49 16.60825 -29.90396 41056 ft 541 kts 94°
2026-04-25 21:50 16.60276 -29.82576 41057 ft 541 kts 94°
2026-04-25 21:50 16.59724 -29.74752 41049 ft 542 kts 94°
2026-04-25 21:51 16.59168 -29.66917 41051 ft 542 kts 94°
2026-04-25 21:51 16.58612 -29.59125 41049 ft 542 kts 94°
2026-04-25 21:52 16.58050 -29.51287 41051 ft 542 kts 94°
2026-04-25 21:52 16.57485 -29.43447 41046 ft 543 kts 94°
2026-04-25 21:53 16.56916 -29.35597 41047 ft 543 kts 94°
2026-04-25 21:53 16.56344 -29.27752 41047 ft 543 kts 94°
2026-04-25 21:54 16.55769 -29.19894 41045 ft 543 kts 94°
2026-04-25 21:54 16.55190 -29.12038 41045 ft 544 kts 94°
2026-04-25 21:55 16.54610 -29.04186 41039 ft 543 kts 94°
2026-04-25 21:55 16.54027 -28.96353 41047 ft 541 kts 94°
2026-04-25 21:56 16.53443 -28.88536 41046 ft 541 kts 94°
2026-04-25 21:56 16.52860 -28.80775 41044 ft 541 kts 94°
2026-04-25 21:57 16.52270 -28.72963 41042 ft 541 kts 94°
2026-04-25 21:57 16.51677 -28.65152 41049 ft 541 kts 94°
2026-04-25 21:58 16.51081 -28.57332 41040 ft 541 kts 94°
2026-04-25 21:58 16.50482 -28.49517 41044 ft 541 kts 94°
2026-04-25 21:59 16.49880 -28.41701 41041 ft 541 kts 94°
2026-04-25 21:59 16.49275 -28.33876 41039 ft 541 kts 94°
2026-04-25 22:00 16.48362 -28.22156 41042 ft 541 kts 94°
2026-04-25 22:00 16.47749 -28.14330 41041 ft 542 kts 95°
2026-04-25 22:01 16.47134 -28.06515 41036 ft 541 kts 95°
2026-04-25 22:01 16.46621 -28.00014 41037 ft 542 kts 95°
2026-04-25 22:02 16.45900 -27.90937 41033 ft 542 kts 95°
2026-04-25 22:02 16.45275 -27.83113 41035 ft 542 kts 95°
2026-04-25 22:03 16.44648 -27.75288 41034 ft 542 kts 95°
2026-04-25 22:03 16.44018 -27.67469 41026 ft 542 kts 95°
2026-04-25 22:04 16.43386 -27.59661 41030 ft 540 kts 94°
2026-04-25 22:04 16.42752 -27.51867 41033 ft 540 kts 95°
2026-04-25 22:05 16.42115 -27.44069 41032 ft 540 kts 95°
2026-04-25 22:05 16.41475 -27.36271 41027 ft 541 kts 95°
2026-04-25 22:06 16.40831 -27.28458 41027 ft 541 kts 95°
2026-04-25 22:06 16.40184 -27.20646 41027 ft 541 kts 95°
2026-04-25 22:07 16.39644 -27.14159 41033 ft 541 kts 95°
2026-04-25 22:07 16.38887 -27.05091 41027 ft 541 kts 95°
2026-04-25 22:08 16.38232 -26.97288 41029 ft 541 kts 95°
2026-04-25 22:08 16.37574 -26.89492 41026 ft 541 kts 95°
2026-04-25 22:09 16.36913 -26.81689 41023 ft 541 kts 95°
2026-04-25 22:09 16.36249 -26.73884 41024 ft 541 kts 95°
2026-04-25 22:10 16.35582 -26.66075 41029 ft 541 kts 95°
2026-04-25 22:10 16.34913 -26.58272 41024 ft 541 kts 95°
2026-04-25 22:11 16.34240 -26.50464 41026 ft 542 kts 95°
2026-04-25 22:11 16.33564 -26.42651 41024 ft 542 kts 95°
2026-04-25 22:12 16.32884 -26.34839 41023 ft 542 kts 95°
2026-04-25 22:12 16.32318 -26.28348 41022 ft 542 kts 95°
2026-04-25 22:13 16.31517 -26.19213 41022 ft 542 kts 95°
2026-04-25 22:13 16.30829 -26.11400 41017 ft 542 kts 95°
2026-04-25 22:14 16.30138 -26.03589 41017 ft 542 kts 95°
2026-04-25 22:14 16.29444 -25.95773 41008 ft 542 kts 95°
2026-04-25 22:15 16.28752 -25.88009 41003 ft 542 kts 95°
2026-04-25 22:16 16.27701 -25.76288 40993 ft 542 kts 95°
2026-04-25 22:16 16.26997 -25.68474 40991 ft 542 kts 95°
2026-04-25 22:17 16.26290 -25.60661 40991 ft 543 kts 95°
2026-04-25 22:17 16.25580 -25.52841 40987 ft 543 kts 95°
2026-04-25 22:18 16.24866 -25.45019 40983 ft 543 kts 95°
2026-04-25 22:18 16.24150 -25.37197 40994 ft 543 kts 95°
2026-04-25 22:19 16.23430 -25.29373 40998 ft 543 kts 95°
2026-04-25 22:19 16.22708 -25.21552 40991 ft 543 kts 95°
2026-04-25 22:20 16.21983 -25.13734 40991 ft 543 kts 95°
2026-04-25 22:20 16.21260 -25.05962 40989 ft 543 kts 95°
2026-04-25 22:21 16.20529 -24.98141 40989 ft 543 kts 95°
2026-04-25 22:21 16.19794 -24.90310 40991 ft 544 kts 95°
2026-04-25 22:22 16.19056 -24.82477 40994 ft 544 kts 95°
2026-04-25 22:22 16.18315 -24.74649 40995 ft 543 kts 95°
2026-04-25 22:23 16.17572 -24.66821 40997 ft 544 kts 95°
2026-04-25 22:23 16.16826 -24.58995 40995 ft 544 kts 95°
2026-04-25 22:24 16.16077 -24.51168 40992 ft 544 kts 95°
2026-04-25 22:24 16.15325 -24.43340 40993 ft 544 kts 95°
2026-04-25 22:25 16.14570 -24.35514 40991 ft 544 kts 95°
2026-04-25 22:25 16.13813 -24.27691 40996 ft 544 kts 95°
2026-04-25 22:26 16.13052 -24.19858 40999 ft 544 kts 96°
2026-04-25 22:26 16.12293 -24.12079 41000 ft 544 kts 96°
2026-04-25 22:27 16.11526 -24.04249 41003 ft 545 kts 96°
2026-04-25 22:27 16.10755 -23.96409 41007 ft 545 kts 96°
2026-04-25 22:28 16.09981 -23.88564 41007 ft 545 kts 96°
2026-04-25 22:28 16.09204 -23.80723 41003 ft 545 kts 96°
2026-04-25 22:29 16.08425 -23.72882 41000 ft 545 kts 96°
2026-04-25 22:29 16.07642 -23.65042 41003 ft 545 kts 96°
2026-04-25 22:30 16.06463 -23.53282 41006 ft 545 kts 96°
2026-04-25 22:30 16.05807 -23.46763 41001 ft 545 kts 96°
2026-04-25 22:31 16.04880 -23.37595 41002 ft 546 kts 96°
2026-04-25 22:31 16.04085 -23.29755 40998 ft 545 kts 96°
2026-04-25 22:32 16.03294 -23.21990 40999 ft 544 kts 96°
2026-04-25 22:32 16.02495 -23.14170 41001 ft 544 kts 96°
2026-04-25 22:33 16.01694 -23.06356 40998 ft 544 kts 96°
2026-04-25 22:33 16.00889 -22.98543 41003 ft 543 kts 96°
2026-04-25 22:34 16.00082 -22.90733 40997 ft 543 kts 96°
2026-04-25 22:34 15.99273 -22.82925 41001 ft 543 kts 96°
2026-04-25 22:35 15.98460 -22.75119 41002 ft 544 kts 96°
2026-04-25 22:35 15.97645 -22.67307 40996 ft 544 kts 96°
2026-04-25 22:36 15.96825 -22.59486 41000 ft 544 kts 96°
2026-04-25 22:36 15.96003 -22.51667 40994 ft 544 kts 96°
2026-04-25 22:37 15.95317 -22.45167 40998 ft 544 kts 96°
2026-04-25 22:37 15.94489 -22.37343 40993 ft 545 kts 96°
2026-04-25 22:38 15.93657 -22.29511 40996 ft 545 kts 96°
2026-04-25 22:38 15.92822 -22.21678 40993 ft 545 kts 96°
2026-04-25 22:39 15.91985 -22.13843 40993 ft 545 kts 96°
2026-04-25 22:39 15.91008 -22.04745 40987 ft 545 kts 96°
2026-04-25 22:40 15.90301 -21.98183 40988 ft 546 kts 96°
2026-04-25 22:40 15.89455 -21.90350 40989 ft 546 kts 96°
2026-04-25 22:41 15.88612 -21.82574 40982 ft 545 kts 96°
2026-04-25 22:41 15.87763 -21.74769 40985 ft 543 kts 96°
2026-04-25 22:42 15.86912 -21.66975 40987 ft 543 kts 96°
2026-04-25 22:42 15.86059 -21.59188 40983 ft 543 kts 97°
2026-04-25 22:43 15.85203 -21.51395 40986 ft 543 kts 97°
2026-04-25 22:43 15.84343 -21.43598 40985 ft 543 kts 97°
2026-04-25 22:44 15.83480 -21.35804 40985 ft 543 kts 97°
2026-04-25 22:44 15.82616 -21.28016 40985 ft 543 kts 97°
2026-04-25 22:45 15.81747 -21.20211 40984 ft 543 kts 97°
2026-04-25 22:45 15.80876 -21.12418 40978 ft 543 kts 97°
2026-04-25 22:46 15.80009 -21.04676 40982 ft 543 kts 97°
2026-04-25 22:46 15.79133 -20.96888 40979 ft 543 kts 97°
2026-04-25 22:47 15.78254 -20.89098 40978 ft 543 kts 97°
2026-04-25 22:47 15.77372 -20.81307 40978 ft 543 kts 97°
2026-04-25 22:48 15.76487 -20.73512 40972 ft 544 kts 97°
2026-04-25 22:48 15.75598 -20.65707 40976 ft 544 kts 97°
2026-04-25 22:49 15.74707 -20.57908 40970 ft 544 kts 97°
2026-04-25 22:49 15.73812 -20.50107 40971 ft 544 kts 97°
2026-04-25 22:50 15.72915 -20.42307 40967 ft 545 kts 97°
2026-04-25 22:50 15.72014 -20.34495 40968 ft 545 kts 97°
2026-04-25 22:51 15.71111 -20.26691 40964 ft 544 kts 97°
2026-04-25 22:51 15.70208 -20.18910 40966 ft 542 kts 97°
2026-04-25 22:52 15.69303 -20.11143 40967 ft 542 kts 97°
2026-04-25 22:52 15.68549 -20.04689 40963 ft 543 kts 97°
2026-04-25 22:53 15.66466 -19.95835 40959 ft 541 kts 111°
2026-04-25 22:53 15.63895 -19.88510 40963 ft 541 kts 112°
2026-04-25 22:54 15.61285 -19.81197 40962 ft 541 kts 112°
2026-04-25 22:54 15.58689 -19.73936 40963 ft 541 kts 112°
2026-04-25 22:55 15.56071 -19.66625 40961 ft 540 kts 112°
2026-04-25 22:55 15.53453 -19.59321 40955 ft 540 kts 112°
2026-04-25 22:56 15.50831 -19.52014 40960 ft 540 kts 112°
2026-04-25 22:56 15.48208 -19.44715 40957 ft 541 kts 112°
2026-04-25 22:57 15.45303 -19.37555 40952 ft 538 kts 118°
2026-04-25 22:57 15.41967 -19.30637 40953 ft 536 kts 118°
2026-04-25 22:58 15.38628 -19.23737 40948 ft 535 kts 118°
2026-04-25 22:58 15.35295 -19.16841 40948 ft 535 kts 118°
2026-04-25 22:59 15.31961 -19.09943 40944 ft 535 kts 118°
2026-04-25 22:59 15.28626 -19.03049 40944 ft 535 kts 118°
2026-04-25 23:00 15.25311 -18.96202 40947 ft 535 kts 118°
2026-04-25 23:00 15.22006 -18.89380 40947 ft 525 kts 118°
2026-04-25 23:01 15.20373 -18.86011 40705 ft 521 kts 118°
2026-04-25 23:01 15.18748 -18.82661 39937 ft 523 kts 118°
2026-04-25 23:01 15.17110 -18.79290 39175 ft 525 kts 118°
2026-04-25 23:01 15.15466 -18.75906 38468 ft 526 kts 118°
2026-04-25 23:02 15.13826 -18.72528 37714 ft 525 kts 118°
2026-04-25 23:02 15.12189 -18.69161 37008 ft 524 kts 118°
2026-04-25 23:02 15.10549 -18.65787 36306 ft 524 kts 118°
2026-04-25 23:02 15.08909 -18.62417 35567 ft 525 kts 118°
2026-04-25 23:03 15.07261 -18.59032 34767 ft 527 kts 118°
2026-04-25 23:03 15.05610 -18.55641 33923 ft 531 kts 118°
2026-04-25 23:03 15.03940 -18.52214 32950 ft 534 kts 117°
2026-04-25 23:03 15.02263 -18.48774 32018 ft 537 kts 117°
2026-04-25 23:04 15.00577 -18.45316 31086 ft 540 kts 117°
2026-04-25 23:04 14.99454 -18.43015 30434 ft 542 kts 116°
2026-04-25 23:04 14.97170 -18.38333 29009 ft 547 kts 116°
2026-04-25 23:04 14.95468 -18.34847 28298 ft 541 kts 116°
2026-04-25 23:05 14.93783 -18.31396 27594 ft 535 kts 116°
2026-04-25 23:05 14.92114 -18.27982 26862 ft 529 kts 116°
2026-04-25 23:05 14.90462 -18.24601 26157 ft 524 kts 117°
2026-04-25 23:05 14.88823 -18.21250 25440 ft 519 kts 117°
2026-04-25 23:06 14.87208 -18.17951 24815 ft 512 kts 117°
2026-04-25 23:06 14.85608 -18.14682 24136 ft 507 kts 117°
2026-04-25 23:06 14.84021 -18.11442 23389 ft 504 kts 117°
2026-04-25 23:06 14.82450 -18.08235 22643 ft 497 kts 117°
2026-04-25 23:07 14.80898 -18.05068 21898 ft 491 kts 117°
2026-04-25 23:07 14.79365 -18.01942 21196 ft 484 kts 117°
2026-04-25 23:07 14.77851 -17.98856 20497 ft 478 kts 117°
2026-04-25 23:07 14.76356 -17.95811 19815 ft 472 kts 118°
2026-04-25 23:08 14.74879 -17.92801 19130 ft 467 kts 118°
2026-04-25 23:08 14.73416 -17.89823 18445 ft 463 kts 118°
2026-04-25 23:08 14.71967 -17.86874 17685 ft 458 kts 118°
2026-04-25 23:08 14.70532 -17.83956 16969 ft 452 kts 118°
2026-04-25 23:09 14.69119 -17.81082 16266 ft 446 kts 118°
2026-04-25 23:09 14.67728 -17.78254 15581 ft 439 kts 118°
2026-04-25 23:09 14.66349 -17.75452 14881 ft 434 kts 118°
2026-04-25 23:09 14.64990 -17.72692 14207 ft 428 kts 119°
2026-04-25 23:10 14.63648 -17.69967 13492 ft 423 kts 119°
2026-04-25 23:10 14.62342 -17.67316 12781 ft 417 kts 119°
2026-04-25 23:10 14.61041 -17.64677 12101 ft 409 kts 119°
2026-04-25 23:10 14.59761 -17.62080 11434 ft 402 kts 118°
2026-04-25 23:11 14.58517 -17.59555 11085 ft 379 kts 118°
2026-04-25 23:11 14.57387 -17.57252 11003 ft 341 kts 118°
2026-04-25 23:11 14.56367 -17.55176 10924 ft 308 kts 120°
2026-04-25 23:11 14.55427 -17.53274 10807 ft 290 kts 119°
2026-04-25 23:12 14.54530 -17.51461 10676 ft 279 kts 120°
2026-04-25 23:12 14.53652 -17.49689 10539 ft 276 kts 120°
2026-04-25 23:12 14.52781 -17.47929 10413 ft 275 kts 120°
2026-04-25 23:12 14.51912 -17.46176 10242 ft 274 kts 120°
2026-04-25 23:13 14.51047 -17.44430 9946 ft 272 kts 120°
2026-04-25 23:13 14.50182 -17.42685 9673 ft 280 kts 119°
2026-04-25 23:13 14.49272 -17.40854 9568 ft 290 kts 119°
2026-04-25 23:13 14.48367 -17.39021 9173 ft 287 kts 118°
2026-04-25 23:14 14.47457 -17.37181 8730 ft 288 kts 119°
2026-04-25 23:14 14.46549 -17.35346 8388 ft 288 kts 118°
2026-04-25 23:14 14.45649 -17.33530 8080 ft 288 kts 118°
2026-04-25 23:14 14.44736 -17.31687 7774 ft 288 kts 117°
2026-04-25 23:15 14.43825 -17.29846 7461 ft 288 kts 117°
2026-04-25 23:15 14.42914 -17.28006 7153 ft 288 kts 117°
2026-04-25 23:15 14.42003 -17.26167 6834 ft 288 kts 116°
2026-04-25 23:15 14.41092 -17.24330 6537 ft 288 kts 116°
2026-04-25 23:16 14.40183 -17.22495 6273 ft 284 kts 116°
2026-04-25 23:16 14.39305 -17.20725 6145 ft 270 kts 116°
2026-04-25 23:16 14.38466 -17.19031 5956 ft 263 kts 116°
2026-04-25 23:16 14.37765 -17.17305 5683 ft 260 kts 101°
2026-04-25 23:17 14.37587 -17.15463 5431 ft 257 kts 88°
2026-04-25 23:17 14.37600 -17.13677 5252 ft 239 kts 85°
2026-04-25 23:17 14.37629 -17.12027 5075 ft 222 kts 86°
2026-04-25 23:17 14.37677 -17.10493 4843 ft 206 kts 82°
2026-04-25 23:18 14.38004 -17.09108 4584 ft 193 kts 61°
2026-04-25 23:18 14.38770 -17.07991 4495 ft 191 kts 41°
2026-04-25 23:18 14.39917 -17.07366 4431 ft 188 kts 14°
2026-04-25 23:18 14.41178 -17.07180 4333 ft 177 kts
2026-04-25 23:19 14.42356 -17.07156 4182 ft 167 kts
2026-04-25 23:19 14.43502 -17.07162 3996 ft 164 kts
2026-04-25 23:19 14.44646 -17.07171 3893 ft 164 kts
2026-04-25 23:19 14.45794 -17.07178 3800 ft 165 kts
2026-04-25 23:20 14.46930 -17.07182 3728 ft 159 kts
2026-04-25 23:20 14.47984 -17.07186 3555 ft 145 kts
2026-04-25 23:20 14.48944 -17.07189 3377 ft 132 kts
2026-04-25 23:20 14.49836 -17.07195 3203 ft 127 kts
2026-04-25 23:21 14.50716 -17.07200 3043 ft 127 kts
2026-04-25 23:21 14.51597 -17.07204 2875 ft 126 kts
2026-04-25 23:21 14.52478 -17.07209 2727 ft 126 kts
2026-04-25 23:21 14.53351 -17.07213 2560 ft 125 kts
2026-04-25 23:22 14.54222 -17.07217 2403 ft 124 kts
2026-04-25 23:22 14.55089 -17.07223 2242 ft 125 kts
2026-04-25 23:22 14.55961 -17.07228 2081 ft 125 kts
2026-04-25 23:23 14.57695 -17.07238 1768 ft 124 kts
2026-04-25 23:23 14.58552 -17.07242 1605 ft 123 kts
2026-04-25 23:23 14.59405 -17.07246 1432 ft 122 kts
2026-04-25 23:23 14.60251 -17.07250 1289 ft 121 kts 360°
2026-04-25 23:24 14.61096 -17.07254 1133 ft 121 kts 359°
2026-04-25 23:24 14.61938 -17.07259 985 ft 121 kts 358°
2026-04-25 23:24 14.62777 -17.07263 818 ft 121 kts 358°
2026-04-25 23:24 14.63622 -17.07274 668 ft 124 kts 357°
2026-04-25 23:25 14.64475 -17.07280 505 ft 121 kts 359°
2026-04-25 23:25 14.65322 -17.07272 358 ft 122 kts 359°
2026-04-25 23:25 14.66152 -17.07275 273 ft 116 kts 359°
2026-04-25 23:25 14.66645 -17.07278 274 ft 92 kts 359°
2026-04-25 23:26 14.66995 -17.07281 274 ft 12 kts 359°
2026-04-25 23:26 14.67062 -17.07253 274 ft 10 kts 62°
2026-04-25 23:26 14.67075 -17.07170 273 ft 13 kts 86°
2026-04-25 23:26 14.67077 -17.07062 274 ft 16 kts 91°
2026-04-25 23:27 14.67078 -17.06972 278 ft 10 kts 87°
2026-04-25 23:27 14.67079 -17.06893 278 ft 10 kts 89°
2026-04-25 23:27 14.67079 -17.06864 278 ft 0 kts 90°